• In Österreich
  • Länderverzeichnis
  • Für 7 Tage
  • Wassertemperatur
  • Satellitenkarten
  • Wetterkarte
  • News
  • Widgets
  • user-avatar
    Anmelden

    Stündliche Wetter Simanovo

    Heute, 23 Juli, Montag

    Zeit Temperatur Niederschläge Wind Luftdruck Luftfeuchtigkeit
    00:00 +17°C° 0 mm 3 m/S 743 mmHg 94%
    01:00 +16°C° 0 mm 2 m/S 743 mmHg 95%
    02:00 +16°C° 0 mm 2 m/S 743 mmHg 95%
    03:00 +16°C° 0 mm 2 m/S 743 mmHg 95%
    04:00 +17°C° 0 mm 3 m/S 743 mmHg 94%
    05:00 +17°C° 0 mm 3 m/S 743 mmHg 94%
    06:00 +18°C° 0 mm 3 m/S 743 mmHg 88%
    07:00 +20°C° 0 mm 3 m/S 744 mmHg 83%
    08:00 +21°C° 0 mm 3 m/S 744 mmHg 78%
    09:00 +22°C° 0,2 mm 3 m/S 744 mmHg 74%
    10:00 +23°C° 0,2 mm 4 m/S 744 mmHg 71%
    11:00 +25°C° 0,2 mm 4 m/S 743 mmHg 67%
    12:00 +25°C° 0,3 mm 4 m/S 743 mmHg 67%
    13:00 +25°C° 0,3 mm 4 m/S 743 mmHg 67%
    14:00 +25°C° 0,3 mm 4 m/S 743 mmHg 67%
    15:00 +25°C° 0,2 mm 4 m/S 743 mmHg 68%
    16:00 +25°C° 0,2 mm 3 m/S 743 mmHg 70%
    17:00 +24°C° 0,2 mm 3 m/S 743 mmHg 72%
    18:00 +22°C° 0,1 mm 3 m/S 743 mmHg 77%
    19:00 +20°C° 0,1 mm 2 m/S 744 mmHg 82%
    20:00 +19°C° 0,1 mm 2 m/S 744 mmHg 87%
    21:00 +18°C° 0 mm 2 m/S 744 mmHg 89%
    22:00 +17°C° 0 mm 2 m/S 744 mmHg 91%
    23:00 +16°C° 0 mm 2 m/S 744 mmHg 94%

    Morgen, 24 Juli, Dienstag

    Zeit Temperatur Niederschläge Wind Luftdruck Luftfeuchtigkeit
    00:00 +16°C° 0 mm 2 m/S 744 mmHg 95%
    01:00 +16°C° 0 mm 2 m/S 744 mmHg 96%
    02:00 +15°C° 0 mm 2 m/S 744 mmHg 96%
    03:00 +14°C° 0 mm 3 m/S 744 mmHg 95%
    04:00 +14°C° 0 mm 3 m/S 745 mmHg 93%
    05:00 +16°C° 0 mm 3 m/S 745 mmHg 92%
    06:00 +17°C° 0 mm 3 m/S 745 mmHg 88%
    07:00 +17°C° 0 mm 3 m/S 745 mmHg 84%
    08:00 +18°C° 0 mm 3 m/S 745 mmHg 81%
    09:00 +19°C° 0 mm 3 m/S 745 mmHg 78%
    10:00 +20°C° 0 mm 4 m/S 745 mmHg 74%
    11:00 +21°C° 0 mm 4 m/S 745 mmHg 71%
    12:00 +21°C° 0 mm 4 m/S 745 mmHg 71%
    13:00 +22°C° 0 mm 4 m/S 745 mmHg 71%
    14:00 +22°C° 0 mm 4 m/S 745 mmHg 71%
    15:00 +22°C° 0 mm 3 m/S 745 mmHg 74%
    16:00 +22°C° 0 mm 3 m/S 745 mmHg 76%
    17:00 +21°C° 0 mm 3 m/S 745 mmHg 79%
    18:00 +21°C° 0 mm 3 m/S 745 mmHg 83%
    19:00 +20°C° 0 mm 3 m/S 745 mmHg 86%
    20:00 +19°C° 0 mm 3 m/S 745 mmHg 90%
    21:00 +19°C° 0 mm 3 m/S 745 mmHg 92%
    22:00 +18°C° 0 mm 2 m/S 745 mmHg 94%
    23:00 +17°C° 0 mm 2 m/S 745 mmHg 96%

    übermorgen, 25 Juli, Mittwoch

    Zeit Temperatur Niederschläge Wind Luftdruck Luftfeuchtigkeit
    00:00 +17°C° 0,1 mm 2 m/S 745 mmHg 96%
    01:00 +17°C° 0,1 mm 2 m/S 745 mmHg 96%
    02:00 +17°C° 0,1 mm 2 m/S 746 mmHg 96%
    03:00 +17°C° 0 mm 2 m/S 746 mmHg 96%
    04:00 +17°C° 0 mm 2 m/S 746 mmHg 95%
    05:00 +18°C° 0 mm 2 m/S 746 mmHg 94%
    06:00 +19°C° 0 mm 2 m/S 746 mmHg 89%
    07:00 +21°C° 0 mm 2 m/S 746 mmHg 84%
    08:00 +24°C° 0 mm 2 m/S 746 mmHg 79%
    09:00 +25°C° 0,3 mm 3 m/S 746 mmHg 76%
    10:00 +26°C° 0,3 mm 3 m/S 746 mmHg 72%
    11:00 +27°C° 0,3 mm 3 m/S 747 mmHg 69%
    12:00 +27°C° 0,9 mm 3 m/S 746 mmHg 72%
    13:00 +27°C° 0,9 mm 3 m/S 746 mmHg 75%
    14:00 +26°C° 0,9 mm 3 m/S 746 mmHg 78%
    15:00 +26°C° 0,3 mm 3 m/S 746 mmHg 79%
    16:00 +26°C° 0,3 mm 2 m/S 747 mmHg 80%
    17:00 +26°C° 0,3 mm 2 m/S 747 mmHg 81%
    18:00 +25°C° 0,1 mm 2 m/S 747 mmHg 83%
    19:00 +23°C° 0,1 mm 2 m/S 747 mmHg 85%
    20:00 +21°C° 0,1 mm 2 m/S 747 mmHg 88%
    21:00 +21°C° 0 mm 2 m/S 748 mmHg 88%
    22:00 +20°C° 0 mm 2 m/S 748 mmHg 88%
    23:00 +19°C° 0 mm 2 m/S 748 mmHg 89%

    26 Juli, Donnerstag

    Zeit Temperatur Niederschläge Wind Luftdruck Luftfeuchtigkeit
    00:00 +19°C° 0 mm 2 m/S 748 mmHg 89%
    01:00 +18°C° 0 mm 2 m/S 748 mmHg 88%
    02:00 +18°C° 0 mm 2 m/S 748 mmHg 88%
    03:00 +18°C° 0 mm 2 m/S 748 mmHg 87%
    04:00 +18°C° 0 mm 2 m/S 749 mmHg 87%
    05:00 +18°C° 0 mm 2 m/S 749 mmHg 86%
    06:00 +20°C° 0 mm 2 m/S 749 mmHg 82%
    07:00 +21°C° 0 mm 2 m/S 749 mmHg 78%
    08:00 +24°C° 0 mm 3 m/S 749 mmHg 74%
    09:00 +26°C° 0 mm 3 m/S 749 mmHg 67%
    10:00 +27°C° 0 mm 3 m/S 749 mmHg 59%
    11:00 +29°C° 0 mm 4 m/S 749 mmHg 52%
    12:00 +29°C° 0 mm 3 m/S 749 mmHg 54%
    13:00 +28°C° 0 mm 3 m/S 749 mmHg 55%
    14:00 +28°C° 0 mm 3 m/S 749 mmHg 57%
    15:00 +28°C° 0 mm 3 m/S 749 mmHg 58%
    16:00 +28°C° 0 mm 3 m/S 749 mmHg 60%
    17:00 +28°C° 0 mm 3 m/S 749 mmHg 62%
    18:00 +27°C° 0 mm 3 m/S 749 mmHg 68%
    19:00 +25°C° 0 mm 3 m/S 749 mmHg 74%
    20:00 +23°C° 0 mm 2 m/S 748 mmHg 81%
    21:00 +23°C° 0 mm 2 m/S 749 mmHg 83%
    22:00 +21°C° 0 mm 2 m/S 749 mmHg 85%
    23:00 +20°C° 0 mm 2 m/S 749 mmHg 87%

    27 Juli, Freitag

    Zeit Temperatur Niederschläge Wind Luftdruck Luftfeuchtigkeit
    00:00 +20°C° 0 mm 2 m/S 749 mmHg 88%
    01:00 +19°C° 0 mm 2 m/S 749 mmHg 89%
    02:00 +20°C° 0 mm 1 m/S 749 mmHg 90%
    03:00 +20°C° 0 mm 1 m/S 749 mmHg 88%
    04:00 +21°C° 0 mm 1 m/S 749 mmHg 86%
    05:00 +21°C° 0 mm 1 m/S 750 mmHg 84%
    06:00 +23°C° 0 mm 2 m/S 750 mmHg 79%
    07:00 +25°C° 0 mm 2 m/S 750 mmHg 73%
    08:00 +26°C° 0 mm 2 m/S 750 mmHg 68%
    09:00 +28°C° 0 mm 2 m/S 750 mmHg 63%
    10:00 +29°C° 0 mm 2 m/S 750 mmHg 59%
    11:00 +30°C° 0 mm 2 m/S 750 mmHg 55%
    12:00 +31°C° 0 mm 2 m/S 750 mmHg 52%
    13:00 +31°C° 0 mm 2 m/S 750 mmHg 50%
    14:00 +32°C° 0 mm 2 m/S 750 mmHg 47%
    15:00 +31°C° 0 mm 2 m/S 750 mmHg 50%
    16:00 +31°C° 0 mm 2 m/S 750 mmHg 54%
    17:00 +31°C° 0 mm 1 m/S 750 mmHg 57%
    18:00 +29°C° 0 mm 1 m/S 750 mmHg 62%
    19:00 +27°C° 0 mm 1 m/S 750 mmHg 68%
    20:00 +25°C° 0 mm 1 m/S 750 mmHg 73%
    21:00 +24°C° 0,2 mm 1 m/S 750 mmHg 76%
    22:00 +23°C° 0,2 mm 1 m/S 750 mmHg 79%
    23:00 +22°C° 0,2 mm 1 m/S 750 mmHg 82%

    28 Juli, Samstag

    Zeit Temperatur Niederschläge Wind Luftdruck Luftfeuchtigkeit
    00:00 +22°C° 0,5 mm 1 m/S 751 mmHg 84%
    01:00 +21°C° 0,5 mm 1 m/S 751 mmHg 86%
    02:00 +21°C° 0,5 mm 1 m/S 751 mmHg 89%
    03:00 +21°C° 0,4 mm 1 m/S 751 mmHg 89%
    04:00 +21°C° 0,4 mm 1 m/S 751 mmHg 88%
    05:00 +20°C° 0,4 mm 0 m/S 751 mmHg 88%
    06:00 +23°C° 0 mm 1 m/S 751 mmHg 82%
    07:00 +25°C° 0 mm 1 m/S 751 mmHg 76%
    08:00 +27°C° 0 mm 1 m/S 751 mmHg 70%
    09:00 +28°C° 0 mm 1 m/S 751 mmHg 63%
    10:00 +30°C° 0 mm 1 m/S 751 mmHg 56%
    11:00 +31°C° 0 mm 1 m/S 751 mmHg 50%
    12:00 +31°C° 0 mm 1 m/S 751 mmHg 49%
    13:00 +31°C° 0 mm 1 m/S 750 mmHg 48%
    14:00 +32°C° 0 mm 1 m/S 750 mmHg 47%
    15:00 +31°C° 0 mm 1 m/S 750 mmHg 51%
    16:00 +30°C° 0 mm 1 m/S 750 mmHg 55%
    17:00 +29°C° 0 mm 1 m/S 750 mmHg 59%
    18:00 +28°C° 0,1 mm 1 m/S 750 mmHg 64%
    19:00 +26°C° 0,1 mm 1 m/S 750 mmHg 69%
    20:00 +24°C° 0,1 mm 1 m/S 750 mmHg 75%
    21:00 +23°C° 0,2 mm 1 m/S 750 mmHg 78%
    22:00 +22°C° 0,2 mm 1 m/S 750 mmHg 80%
    23:00 +22°C° 0,2 mm 1 m/S 750 mmHg 83%
    Mehr zeigen